Starlink 32158

operational
NORAD ID: 60267 Int'l Des: 2024-131 Owner: SPXS Country: US Constellation: starlink
LEOCIRCULAR

About Starlink 32158

Description loading...

Live Position

Loading 3D Globe...

Upcoming Passes

Altitude History

Altitude vs Time

uPlot chart will show altitude changes over time

Two-Line Element Set

1 60267U 24131N 25258.40319834 -.00000046 00000-0 10587-4 0 9992
2 60267 53.1600 146.4627 0001159 95.3333 264.7800 15.30199412 64787
Epoch: Sep 15, 2025 • Age: 17 hours

Current Status

Altitude 475.4 km
Velocity 7.63 km/s
Sub-Earth Point 19.91°N, 118.01°E
Launch Date Jul 27, 2024
Age 1.1 years
Type internet

Technical Details

Classification Payload
Mass 730.00 kg
Dry Mass 700.00 kg
Total Mass 730.00 kg
Length 0.30 m
Diameter 4.10 m
Span 29.00 m
Shape Box + pan
Manufacturer SPXS
Bus Type Starlink V2M
Phase Status In Orbit
Owner/State SPXS/US

Large Constellations

Loading constellations...